Miscellaneous Local Product
Issued by NWS Hastings, NE

Home | Current Version | Previous Version | Graphics & Text | Print | Product List | Glossary On
Versions: 1 2 3 4 5 6 7 8 9 10 11 12 13 14 15 16 17 18 19 20 21 22 23 24 25 26 27 28 29 30 31 32 33 34 35 36 37 38 39 40 41 42 43 44 45 46 47 48 49 50
000
AXUS43 KGID 200002
MISGRI

GID CWA HOURLY WEATHER ROUNDUP
NATIONAL WEATHER SERVICE HASTINGS NE
700 PM CDT TUE AUG 19 2014

NOTE: "FAIR" INDICATES FEW OR NO CLOUDS BELOW 12,000 FEET WITH NO
SIGNIFICANT WEATHER AND/OR OBSTRUCTIONS TO VISIBILITY.

...SOUTH CENTRAL NEBRASKA...

CITY           SKY/WX    TMP DP  RH WIND       PRES   REMARKS
GRAND ISLAND   SUNNY     85  71  63 SE8       29.79F HX  90
HASTINGS       SUNNY     87  64  46 SE8       29.79F
KEARNEY        SUNNY     84  68  58 E9        29.79F
ORD            PTSUNNY   82  68  62 SE7       29.78F
AURORA         SUNNY     85  71  61 SE5       29.79F HX  90
LEXINGTON      SUNNY     86  69  57 SE8       29.77F HX  90
HOLDREGE       SUNNY     86  66  51 SE8       29.77F
HEBRON         SUNNY     87  67  52 S5        29.78F HX  90

...NEBRASKA PANHANDLE...

CITY           SKY/WX    TMP DP  RH WIND       PRES   REMARKS
CHADRON        MOSUNNY   94  40  15 SW5       29.70F HX  90
ALLIANCE       PTSUNNY   85  52  32 S15       29.80R
SCOTTSBLUFF    TSTM      76  56  49 E21       29.82F
SIDNEY         CLOUDY    85  54  34 SE13      29.83F

...WESTERN AND NORTH CENTRAL NEBRASKA...

CITY           SKY/WX    TMP DP  RH WIND       PRES   REMARKS
VALENTINE      PTSUNNY   87  61  41 SE15      29.77F
AINSWORTH      PTSUNNY   82  63  52 SE9       29.80S
ONEILL         MOSUNNY   82  67  59 SE9       29.80F
BROKEN BOW     PTSUNNY   84  68  58 SE10      29.79F
IMPERIAL       MOSUNNY   89  58  34 SE10      29.76F
NORTH PLATTE   SUNNY     83  67  58 E18       29.76F
MCCOOK         SUNNY     92  62  36 E18       29.74F HX  92

...EASTERN NEBRASKA...

CITY           SKY/WX    TMP DP  RH WIND       PRES   REMARKS
NORFOLK        SUNNY     83  64  52 S10       29.79S
SO SIOUX CITY  SUNNY     83  67  58 CALM      29.78S
TEKAMAH        SUNNY     85  66  53 E3        29.78F
COLUMBUS       SUNNY     84  68  58 SE5       29.80F
ALBION         SUNNY     82  66  57 SE7       29.80F
OMAHA EPPLEY   MOSUNNY   86  64  47 E7        29.78F
OFFUTT AFB     SUNNY     84  71  65 E6        29.78F HX  90
MILLARD        SUNNY     87  67  51 SE7       29.78S
LINCOLN        SUNNY     88  66  48 NE8       29.78F HX  90
NEBRASKA CITY  SUNNY     83  69  62 SE3       29.79F
BEATRICE       SUNNY     89  71  55 E3        29.78S HX  95
FALLS CITY     SUNNY     87  75  67 E7        29.78S HX  96

...NORTHERN KANSAS...

CITY           SKY/WX    TMP DP  RH WIND       PRES   REMARKS
GOODLAND       MOSUNNY   90  49  24 SE20G35   29.77F
HILL CITY      SUNNY     95  57  27 S18G25    29.74F HX  94
NORTON         CLEAR     91  55  29 E17G23    29.73F
PHILLIPSBURG   SUNNY     91  59  33 E16       29.74F HAZE    HX  90
SMITH CENTER   SUNNY     91  59  33 SE15      29.76F HX  90
BELOIT         SUNNY     91  61  35 SE7       29.74F HX  91
HAYS           SUNNY     93  61  33 S18       29.77S HX  93
RUSSELL        SUNNY     93  60  33 S20       29.75F HX  93
CONCORDIA      SUNNY     87  71  58 SE6       29.77F HX  93
SALINA         PTSUNNY   93  68  43 S13       29.75F HX  97
TOPEKA         SUNNY     94  61  33 SW6       29.77S HX  94



USA.gov is the U.S. government's official web portal to all federal, state and local government web resources and services.